AO-07 1 07530U 74089B 16217.88774338 -.00000042 00000-0 10270-4 0 9999 2 07530 101.5788 187.4664 0011629 214.8740 160.1397 12.53622401909223 FO-29 1 24278U 96046B 16217.75368272 -.00000021 00000-0 11742-4 0 9998 2 24278 98.5839 136.6130 0351432 76.9076 287.1035 13.53069680986088 RS-22 1 27939U 03042A 16217.87179098 .00000155 00000-0 36370-4 0 9999 2 27939 97.8956 7.6873 0013862 145.6126 337.3510 14.66431021686956 AO-73 1 39444U 13066AE 16216.85748386 .00000448 00000-0 62717-4 0 9998 2 39444 97.6771 268.3470 0057828 223.9624 135.6982 14.81117612144635 EO-79 1 40025U 14033R 16217.74325786 .00000388 00000-0 48328-4 0 9999 2 40025 97.9240 123.1826 0011140 265.0547 94.9397 14.88066687115421 XW-2A 1 40903U 15049E 16217.81693125 .00003058 00000-0 87313-4 0 9999 2 40903 97.4440 233.5624 0014561 327.1263 32.9074 15.36730035 49025 XW-2C 1 40906U 15049H 16217.82568486 .00000960 00000-0 56814-4 0 9995 2 40906 97.4538 223.8600 0014347 225.1403 134.8664 15.13717484 48368 LILACSAT-2 1 40908U 15049K 16217.87123998 .00000496 00000-0 32006-4 0 9998 2 40908 97.4604 223.7657 0015319 218.9511 141.0617 15.12622214 48346 UO-11 1 14781U 84021B 16217.35176036 .00000139 00000-0 23488-4 0 9996 2 14781 97.7453 267.8711 0009281 148.8880 211.2885 14.82772562743394 LO-19 1 20442U 90005G 16217.38953314 .00000002 00000-0 16643-4 0 9995 2 20442 98.5443 151.6643 0012011 9.7952 350.3464 14.32824171386252 AO-27 1 22825U 93061C 16217.78531824 -.00000002 00000-0 16828-4 0 9995 2 22825 98.7632 174.3432 0008511 168.2203 191.9179 14.29962988192183 IO-26 1 22826U 93061D 16217.11916355 .00000007 00000-0 20035-4 0 9998 2 22826 98.7574 173.7912 0009176 161.7258 198.4256 14.30288349192251 GO-32 1 25397U 98043D 16217.07469173 -.00000014 00000-0 12591-4 0 9992 2 25397 98.5695 160.7809 0001314 147.7276 212.3983 14.23599138938670 NO-44 1 26931U 01043C 16217.16344345 -.00000051 00000-0 12108-4 0 9999 2 26931 67.0501 189.1321 0006077 260.5927 99.4487 14.30417618775003 SO-50 1 27607U 02058C 16217.70434912 .00000334 00000-0 47672-4 0 9994 2 27607 64.5569 12.6069 0062980 206.3003 153.5388 14.75185587732424 CO-55 1 27844U 03031E 16216.94939127 .00000067 00000-0 50161-4 0 9992 2 27844 098.6926 224.5502 0009661 177.6548 182.4676 14.21966007679199 CO-57 1 27848U 03031J 16217.28656679 .00000048 00000-0 41614-4 0 9994 2 27848 98.7022 224.9978 0009420 185.2503 174.8577 14.21590741679172 CO-65 1 32785U 08021C 16216.85918278 .00000381 00000-0 47559-4 0 9996 2 32785 097.5997 249.0852 0014371 134.7247 225.5142 14.87615780447640 PRISM 1 33493U 09002B 16217.66267347 .00000933 00000-0 90900-4 0 9998 2 33493 98.2113 80.0273 0017064 49.4182 310.8515 14.95040516408475 TISAT-1 1 36799U 10035E 16217.81151168 .00000517 00000-0 59815-4 0 9996 2 36799 98.0345 328.8518 0011160 287.6901 72.3097 14.89892214328663 ALMASAT-1 1 38078U 12006B 16217.60142143 .00031368 35990-5 42414-3 0 9993 2 38078 69.4433 254.2946 0374602 31.7830 330.5360 15.05142866236866 DUCHIFAT-1 1 40021U 14033M 16217.72326041 .00000513 00000-0 59958-4 0 9999 2 40021 97.9273 124.3593 0011674 263.1817 96.8072 14.89383954115485 NANOSATCBR1 1 40024U 14033Q 16217.72355123 .00000444 00000-0 53452-4 0 9991 2 40024 97.9246 123.6977 0010945 263.2441 96.7530 14.88783252115459 DTUSAT-2 1 40030U 14033W 16217.66938963 .00000380 00000-0 47843-4 0 9996 2 40030 97.9218 122.5194 0010577 258.3569 101.6460 14.87699817115383 ANTELSAT 1 40034U 14033AA 16217.65049280 .00000188 00000-0 36191-4 0 9994 2 40034 97.8971 104.6745 0057986 229.6722 129.9450 14.73429910114316 MET-2/21 1 22782U 93055A 16217.17596025 -.00000028 00000-0 -38766-4 0 9991 2 22782 82.5485 275.1501 0021342 238.1827 173.9013 13.83789806157852 NOAA-15 1 25338U 98030A 16217.50567892 .00000042 00000-0 36486-4 0 9997 2 25338 98.7837 221.7538 0011528 50.2880 309.9314 14.25745153947874 NOAA-18 1 28654U 05018A 16217.52116022 .00000045 00000-0 49945-4 0 9999 2 28654 99.1974 225.7095 0013377 237.4331 122.5548 14.12297375577557 NOAA-19 1 33591U 09005A 16217.48253455 .00000072 00000-0 64208-4 0 9991 2 33591 99.0439 174.6617 0015115 83.3175 276.9715 14.12094182385958 HUBBLE 1 20580U 90037B 16216.91597222 .00000632 00000-0 28357-4 0 9997 2 20580 028.4703 303.5153 0002858 006.4222 308.3513 15.08441888242233 ISS 1 25544U 98067A 16217.87785576 .00001550 00000-0 29835-4 0 9992 2 25544 51.6440 175.0799 0002055 101.2701 354.7556 15.54916008 12562 CO-58 1 28895U 05043F 16217.44304991 .00000179 00000-0 43226-4 0 9993 2 28895 97.8359 28.9611 0018266 68.1089 292.2054 14.63229416574162 AAUSAT2 1 32788U 08021F 16216.81980822 .00000717 00000-0 73608-4 0 9996 2 32788 97.6000 258.1121 0013726 109.3430 250.9276 14.93308856448308 DO-64 1 32789U 08021G 16217.71814377 .00002648 00000-0 19853-3 0 9994 2 32789 97.6019 276.0901 0014363 97.5180 262.7678 15.03453708449297 CO-66 1 32791U 08021J 16216.80861486 .00000379 00000-0 44950-4 0 9995 2 32791 097.6002 252.3607 0014967 124.5645 235.6988 14.89833270447806 RS-30 1 32953U 08025A 16217.81635370 .00000028 00000-0 13165-3 0 9996 2 32953 82.5009 76.4123 0018067 256.5412 103.3655 12.43070611372110 JUGNU 1 37839U 11058B 16217.33728376 .00000304 00000-0 20026-4 0 9992 2 37839 19.9601 211.6332 0018746 291.0570 201.8611 14.12547701248843 SRMSAT 1 37841U 11058D 16216.52729273 .00000315 00000-0 27800-4 0 9991 2 37841 19.9711 251.7013 0011724 191.2366 319.7021 14.10546146248385 AO-71 1 37854U 11061E 16217.78676051 .00001238 00000-0 76552-4 0 9996 2 37854 101.7017 284.9166 0172248 290.3937 67.8846 15.02427258259392 HRBE 1 37855U 11061F 16217.77424380 .00001118 00000-0 68792-4 0 9996 2 37855 101.7149 282.9345 0185490 295.0154 63.1895 15.01358491259284 HORYU-2 1 38340U 12025D 16217.19887950 .00000319 00000-0 55516-4 0 9991 2 38340 98.3580 204.3028 0010796 214.5991 145.4515 14.75074790226555 RS-40 1 38735U 12041C 16217.85748739 .00000011 00000-0 10047-4 0 9990 2 38735 82.4778 161.4281 0017297 1.9828 358.1317 12.42572375182402 BEESAT-3 1 39134U 13015E 16217.20316583 .00002185 00000-0 12248-3 0 9991 2 39134 64.8693 168.3651 0011954 296.5591 63.4309 15.16185571181392 BEESAT-2 1 39136U 13015G 16217.21970795 .00001732 00000-0 10584-3 0 9993 2 39136 64.8701 174.9134 0011178 302.2233 57.7806 15.13807593181276 ZACUBE-1 1 39417U 13066B 16217.40220446 .00000324 00000-0 47962-4 0 9990 2 39417 97.6760 268.2054 0058607 224.3140 135.3374 14.80439728145901 TRITON-1 1 39427U 13066M 16217.64578753 .00000233 00000-0 45975-4 0 9995 2 39427 97.6643 247.8470 0113177 282.4504 76.4056 14.67227834144628 GOMX-1 1 39430U 13066Q 16217.75422240 .00000205 00000-0 46837-4 0 9997 2 39430 97.6677 235.0028 0151588 322.8019 36.2736 14.58639093143807 LO-74 1 39440U 13066AA 16217.64887095 .00000274 00000-0 46003-4 0 9990 2 39440 97.6698 260.2317 0079690 246.2083 113.0757 14.75200001145424 SPROUT 1 39770U 14029E 16217.79734548 .00000727 00000-0 90510-4 0 9991 2 39770 97.8739 314.4837 0007945 286.3614 73.6738 14.85499839119157 EO-80 1 40032U 14033Y 16217.69765829 .00000377 00000-0 47620-4 0 9999 2 40032 97.9224 122.5568 0010579 258.5427 101.4601 14.87632973115389 VELOX-1 1 40057U 14034E 16217.78154920 .00000304 00000-0 50980-4 0 9994 2 40057 98.1946 307.3110 0011205 359.2545 0.8655 14.76765320113057 DAURIA DX 1 1 40071U 14037C 16217.79008030 .00000094 00000-0 19609-4 0 9993 2 40071 98.3318 310.5729 0008755 358.2525 1.8666 14.80845690112149 UKUBE-1 1 40074U 14037F 16217.85443416 .00000278 00000-0 41292-4 0 9991 2 40074 98.3370 312.9825 0004822 7.7859 352.3452 14.83132262112289 HODOYOSHI-1 1 40299U 14070B 16217.81343541 .00000774 00000-0 37457-4 0 9990 2 40299 97.4291 299.0556 0014854 117.2127 30.4647 15.21442672 96820 CHUBUSAT-1 1 40300U 14070C 16217.80333997 .00000908 00000-0 45174-4 0 9990 2 40300 97.4241 297.1383 0022304 125.3763 352.5207 15.19962675 96715 QSAT-EOS 1 40301U 14070D 16217.78572203 .00001751 00000-0 80372-4 0 9999 2 40301 97.4186 296.5163 0030383 125.7226 22.9424 15.21351177 96695 FIREBIRD FU3 1 40377U 15003B 16217.81803859 .00001737 00000-0 82034-4 0 9998 2 40377 99.0908 333.8887 0142473 329.5708 29.7304 15.12871457 83134 FIREBIRD FU4 1 40378U 15003C 16217.81407784 .00001720 00000-0 81209-4 0 9991 2 40378 99.0910 333.9006 0142684 329.5260 29.7729 15.12881953 83132 GRIFEX 1 40379U 15003D 16217.80818175 .00001340 00000-0 67077-4 0 9996 2 40379 99.0917 332.8931 0146943 333.6087 25.7704 15.11044975 83076 NO-84 1 40654U 15025D 16216.31527500 .00004097 00000-0 93469-4 0 01910 2 40654 054.9968 210.2142 0204092 189.3983 170.3143 15.26619509031234 NO-83 1 40655U 15025E 16216.32880835 .00003902 00000-0 82266-4 0 02104 2 40655 054.9845 202.1157 0184012 192.9104 166.7121 15.32033349031323 DEORBITSAIL 1 40719U 15032E 16217.23172182 .00000599 00000-0 95138-4 0 9998 2 40719 98.0112 108.4296 0018206 82.4909 277.8368 14.75612261 57573 NUDT-PHONESAT 1 40900U 15049B 16217.84243205 .00003244 00000-0 16644-3 0 9994 2 40900 97.4447 224.7165 0013256 244.2574 115.7291 15.17175365 48450 XW-2D 1 40907U 15049J 16217.82544374 .00001010 00000-0 59524-4 0 9994 2 40907 97.4505 223.7182 0013763 223.1463 136.8691 15.13766085 48365 XW-2F 1 40910U 15049M 16217.84365307 .00001439 00000-0 82038-4 0 9998 2 40910 97.4535 223.9765 0014780 221.9166 138.0936 15.14276985 48268 XW-2B 1 40911U 15049N 16217.82550100 .00000980 00000-0 57905-4 0 9999 2 40911 97.4552 223.9201 0013656 223.3334 136.6825 15.13747323 48266 DCBB 1 40912U 15049P 16217.73210197 .00001180 00000-0 64356-4 0 9990 2 40912 97.4522 224.7788 0015061 218.2444 229.1113 15.16234515 48311 TW-1C 1 40926U 15051B 16217.71486734 .00004770 00000-0 13301-3 0 9999 2 40926 97.2720 254.1186 0012586 227.5429 271.7261 15.37171893 48216 TW-1A 1 40928U 15051D 16217.82417977 .00002200 00000-0 69986-4 0 9993 2 40928 97.2664 253.1136 0012287 250.6200 195.5548 15.33604337 48177 IO-86 1 40931U 15052B 16217.71481419 .00000674 00000-0 49976-5 0 9999 2 40931 6.0004 329.1362 0012823 83.7511 276.4109 14.76471704 46118 GomX-3 1 40949U 98067HA 16217.81900844 .00097608 00000-0 38797-3 0 9994 2 40949 51.6285 141.5959 0003400 78.6255 281.5130 15.85885112 47767 LQSat 1 40958U 15057A 16217.74914450 .00000023 00000-0 11396-4 0 9994 2 40958 98.0122 291.9986 0018502 3.5163 356.6162 14.72884936 44535 AO-85 1 40967U 15058D 16216.17466948 .00000345 00000-0 55447-4 0 02079 2 40967 064.7806 103.3572 0201649 190.0332 169.6794 14.75072857030203 ATHENOXAT-1 1 41168U 15077C 16217.59361067 .00001847 00000-0 70166-4 0 9998 2 41168 14.9843 319.9903 0013395 313.1457 157.7923 15.10159099 35080 ChubuSat-2 1 41338U 16012B 16216.71790734 .00000426 00000-0 26975-4 0 9998 2 41338 31.0040 328.1066 0013908 157.7313 202.3928 14.99434621 25290 ChubuSat-3 1 41339U 16012C 16217.69013237 .00000389 00000-0 23924-4 0 9992 2 41339 31.0107 321.6197 0013689 173.8312 186.2491 14.99663017 25414 Horyu-4 1 41340U 16012D 16217.64799303 .00000714 00000-0 49008-4 0 9997 2 41340 31.0059 321.2084 0014232 178.2887 181.7799 15.00100472 25431 OUFTI-1 1 41458U 16025C 16217.40751654 .00000419 00000-0 28622-4 0 9993 2 41458 98.2023 230.6580 0175552 266.6581 91.4552 15.01308351 15011 e-st@r-II 1 41459U 16025D 16217.80774086 .00000341 00000-0 24350-4 0 9990 2 41459 98.2032 231.0769 0175053 265.1868 92.9348 15.01280385 15075 AAUSAT4 1 41460U 16025E 16217.73153718 .00001881 00000-0 10981-3 0 9991 2 41460 98.1996 231.0031 0174161 265.3772 92.7564 15.01560036 15063 MinXSS 1 41474U 98067HU 16217.79236561 .00033944 00000-0 42607-3 0 9991 2 41474 51.6406 173.9748 0003806 24.9202 335.2496 15.59044818 12515 CADRE 1 41475U 98067HV 16217.87511923 .00044830 00000-0 52630-3 0 9992 2 41475 51.6398 173.0150 0003416 42.7935 317.3324 15.61009111 12535 NODES 1 1 41477U 98067HX 16217.88302376 .00021129 00000-0 28083-3 0 9996 2 41477 51.6398 173.8201 0001679 7.3685 352.7332 15.58145826 12431 NODES 2 1 41478U 98067HY 16217.88467671 .00020674 00000-0 27542-3 0 9990 2 41478 51.6397 173.8301 0001651 8.7321 351.3699 15.58099452 12438 NuSat1-LUSEX 1 41557U 16033B 16217.97908650 .00001530 00000-0 63092-4 0 9999 2 41557 97.4974 291.2216 0015972 47.0950 50.4842 15.25525351 10194 NuSat2 1 41558U 16033C 16218.04694681 .00001495 00000-0 62005-4 0 9998 2 41558 97.4987 291.2930 0015673 44.5911 31.6181 15.25385893 10203 Lapan A3 1 41603U 16040E 16217.83079193 .00000291 00000-0 17134-4 0 9994 2 41603 97.5083 276.7310 0015282 95.1819 15.9273 15.19078939 6628 Swayam 1 41607U 16040J 16217.35148634 .00002366 00000-0 11568-3 0 9991 2 41607 97.5055 276.2340 0016722 101.6924 258.6188 15.19094655 6476 /EX